Flag for Australia Weather past 2 weeks in Traralgon, Victoria, Australia

Now
45 °F

Fog.


Feels Like: 38 °F
Forecast: 45 / 51 °F
Wind: 17 mph from West

Location: Latrobe Valley Airport

Current Time: Jul 2, 2015 at 9:53:54 AM

Latest Report: Jul 2, 2015 at 9:00 AM


Visibility: 3 mi

Pressure: 30.05 "Hg

Humidity: 100%

Dew point: 45 °F

Location of TraralgonLocation

Historic Weather in Traralgon — Graph

°F

Traralgon temperature yesterday

Maximum temperature yesterday: 55 °F (at 3:00 PM)
Minimum temperature yesterday: 47 °F (at 2:00 AM)
Average temperature yesterday: 51 °F

Past Weeks' High & Low Weather Summary

 TemperatureHumidityPressure
High61 °F (Jun 24, 2:00 PM)100% (Jun 17, 8:00 AM)30.53 "Hg (Jun 17, 8:00 AM)
Low27 °F (Jun 22, 3:00 AM)63% (Jul 1, 3:00 PM)29.89 "Hg (Jun 17, 2:00 PM)
Average47 °F94%30.29 "Hg
* Reported Jun 17 8:00 AM — Jul 2 8:00 AM, Traralgon, Weather by CustomWeather, © 2015

Note: Actual official high and low records may vary slightly from our data, if they occured in-between our weather recording intervals... More about our weather records

Advertising

Traralgon weather history for previous 24 hours

 ConditionsComfort  
Time TempWeatherWind HumidityBarometerVisibility
8:00 AM
Thu, Jul 2
48 °FCool.15 mph100%30.05 "HgN/A
6:00 AM48 °FOvercast.22 mph100%30.03 "Hg1 mi
5:00 AM52 °FCool.17 mph94%30.00 "HgN/A
3:00 AM52 °FOvercast.14 mph81%30.01 "HgN/A
2:00 AM52 °FCool.20 mph77%30.01 "HgN/A
12:00 AM51 °FPassing clouds.22 mph76%30.05 "HgN/A
11:00 PM
Wed, Jul 1
53 °FCool.22 mph70%30.07 "HgN/A
9:00 PM51 °FOvercast.13 mph72%30.12 "HgN/A
8:00 PM49 °FCool.9 mph76%30.14 "HgN/A
6:00 PM50 °FCool.9 mph71%30.16 "HgN/A
5:00 PM51 °FCool.6 mph71%30.18 "HgN/A
3:00 PM55 °FOvercast.17 mph63%30.20 "HgN/A
2:00 PM54 °FCool.18 mph64%30.22 "HgN/A
12:00 PM53 °FOvercast.17 mph67%30.27 "HgN/A
11:00 AM53 °FCool.12 mph88%30.32 "HgN/A
9:00 AM50 °FOvercast.7 mph100%30.33 "HgN/A
Weather by CustomWeather, © 2015

See weather overviewHow to use our weather pages